Location: Starlight Observatory
(38.4029°N, 85.8936°W)
Time: 10:18:08
(UTC-05:00)

Daily predictions for brighter satellites

Satellite Brightness Start Highest point End
(mag) Time Altitude Azimuth Time Altitude Azimuth Time Altitude Azimuth
SKYMED 2 4.0 18:22:36 10° NNE 18:26:44 42° E 18:30:51 10° S
Cosmos 1538 Rocket 4.3 18:24:37 10° S 18:29:43 51° ESE 18:34:54 10° NNE
Thor Agena Rocket 3.7 18:25:51 10° NNE 18:31:06 83° WNW 18:36:14 10° SSW
Sich 1 3.8 18:28:08 10° SSE 18:32:04 32° E 18:36:00 10° NNE
SPOT 3 Rocket 3.8 18:29:03 10° S 18:34:11 75° WSW 18:39:23 10° NNW
MSX 3.9 18:29:04 10° SSE 18:34:47 86° WSW 18:40:33 10° NNW
Cosmos 1703 3.4 18:31:34 10° S 18:35:21 53° E 18:39:10 10° NNE
Coronas F rocket 2.8 18:35:27 10° SE 18:36:56 15° E 18:37:54 12° ENE
Cosmos 2180 Rocket 4.5 18:33:52 10° N 18:40:01 66° E 18:46:13 10° SSE
Cosmos 2237 Rocket 3.5 18:36:02 10° SW 18:41:17 40° WNW 18:46:36 10° N
Meteor 2-10 4.1 18:36:29 10° N 18:41:40 89° WSW 18:46:59 10° S
Cosmos 1300 3.9 18:38:07 10° NNW 18:41:49 46° W 18:45:29 10° SSW
SOZ 4.1 18:40:40 10° SW 18:42:52 71° SE 18:44:55 13° NE
SJ-6B 4.0 18:40:37 10° ESE 18:43:51 23° ENE 18:47:08 10° NNE
Cosmos 1633 Rocket 3.6 18:39:48 10° SSE 18:43:52 37° E 18:47:56 10° NNE
Timation 1 Rocket 4.4 18:38:02 10° NNW 18:44:05 85° ENE 18:50:06 10° SSE
Cosmos 2369 Rocket 3.8 18:43:08 10° NNE 18:45:44 13° NE 18:47:04 12° ENE
CZ-4 R/B 3.6 18:44:25 10° SSW 18:47:50 29° W 18:51:18 10° NW
SL-16 R/B 2.3 18:44:43 10° SSW 18:50:22 80° WNW 18:56:03 10° NNE
Cosmos 1900 4.4 18:49:51 10° NNW 18:54:51 88° WSW 18:59:52 10° SSE
Cosmos 773 Rocket 3.9 18:55:56 10° S 19:01:02 66° ESE 19:06:13 10° NNE
ALOS 3.3 18:58:00 10° ESE 19:01:40 23° ENE 19:05:20 10° NNE
USA 215 3.9 18:56:43 14° E 19:01:43 36° NNE 19:07:34 10° NNW
Cosmos 1484 Rocket 3.6 18:59:16 10° S 19:03:09 57° W 19:07:06 10° NNW
Cosmos 2297 4.0 19:00:03 10° NNW 19:05:45 72° WSW 19:11:27 10° SSE
Meteor 1-28 Rocket 3.1 19:02:29 10° NNE 19:06:12 89° ESE 19:09:56 10° SSW
Cosmos 1340 Rocket 4.5 19:05:30 10° SW 19:09:06 34° WNW 19:12:42 10° N
METEOR-M 4.2 19:03:54 10° SSE 19:09:08 57° ENE 19:14:23 10° N
Cosmos 1862 Rocket 4.5 19:05:41 10° NNE 19:09:21 25° ENE 19:12:57 10° SE
Cosmos 292 Rocket 4.0 19:06:18 10° S 19:10:49 46° ESE 19:14:24 16° NE
FENGYUN 3A 4.3 19:06:42 10° SE 19:11:23 31° ENE 19:16:04 10° N
Cosmos 1707 Rocket 3.6 19:07:35 10° N 19:11:56 79° W 19:16:16 10° S
NOAA 12 4.0 19:08:48 10° SSE 19:13:59 69° ENE 19:19:14 10° N
COSMO-SKYMED 1 3.4 19:10:33 10° N 19:14:47 52° WNW 19:18:59 10° SSW
Cosmos 2112 Rocket 4.3 19:15:33 10° S 19:20:24 42° ESE 19:23:17 22° NE
Cosmos 1666 Rocket 4.0 19:16:35 10° SSW 19:20:52 63° W 19:25:14 10° N
Cosmos 1869 3.2 19:20:53 10° N 19:24:56 67° E 19:28:56 10° SSE
Cosmos 1943 3.8 19:22:29 10° SSE 19:27:28 33° ESE 19:28:35 30° E
Cosmos 1626 3.7 19:25:01 10° SSW 19:28:30 37° W 19:32:00 10° N
Lacrosse 4 Rocket 1.1 19:25:23 10° NNW 19:29:27 77° ENE 19:33:02 13° SSE
ATLAS 5 CENTAUR R/B 4.0 19:26:25 10° N 19:29:30 16° NNE 19:29:30 16° NNE
Cosmos 1933 Rocket 3.5 19:28:01 10° S 19:32:23 60° E 19:35:24 20° NNE
TIMED 4.4 19:29:23 10° NNW 19:33:47 89° WSW 19:38:09 10° SSE
Resurs 01 Rocket 1.8 19:32:47 10° SE 19:37:02 47° ENE 19:41:19 10° N
SL-19 R/B 4.2 19:35:03 10° SSE 19:40:50 68° ENE 19:46:24 10° N
H-2A ROCKET BODY 3.7 19:17:26 10° WSW 19:41:40 47° SSW 19:45:25 23° SE
USA 229 DEB 4.1 19:39:34 10° SW 19:46:21 63° NW 19:51:58 16° NNE
USA 229 4.0 19:39:39 10° SW 19:46:26 64° NW 19:52:02 16° NNE
FREGAT/IRIS 3.5 19:44:21 10° S 19:47:18 49° W 19:50:18 10° NNW
Cosmos 1943 Rocket 4.1 19:43:30 10° N 19:44:33 14° NNE 19:44:33 14° NNE
Iridium 4 Rocket 3.3 19:44:57 10° S 19:49:23 67° W 19:53:35 10° N
Cosmos 1627 Rocket 4.3 19:43:40 10° S 19:49:49 73° E 19:55:57 10° N
Cosmos 1655 Rocket 4.0 19:44:31 10° SSE 19:50:42 56° E 19:56:54 10° NNE
Spot 2 Rocket 3.3 19:46:18 10° SSE 19:51:17 67° ENE 19:56:18 10° N
Cosmos 1470 Rocket 3.8 19:49:42 10° SSW 19:54:01 69° W 19:57:06 19° N
Cosmos 1242 Rocket 3.0 19:51:35 10° NNW 19:55:02 58° W 19:58:28 10° S
Cosmos 1603 4.0 19:49:48 10° SSW 19:55:21 64° WNW 19:59:29 18° NNE
Tiangong 1 2.6 19:52:29 10° WSW 19:54:18 33° WSW 19:54:18 33° WSW
Cosmos 1455 4.5 19:54:00 10° NW 19:57:10 25° W 20:00:20 10° SSW
CZ-4C R/B 4.2 19:52:29 10° N 19:56:24 19° NNE 19:56:24 19° NNE
NOSS 3-1 (A) 3.5 19:54:37 10° S 20:00:05 50° ESE 20:00:05 50° ESE
FengYun 1-2 T 4.2 19:57:26 10° SSE 20:02:59 84° WSW 20:08:33 10° NNW
Cosmos 2026 Rocket 4.0 20:08:40 10° S 20:14:52 79° W 20:21:01 10° N
Cosmos 2369 Rocket 2.8 20:24:55 10° NNW 20:28:57 48° NNW 20:28:57 48° NNW
Cosmos 972 Rocket 4.3 20:25:49 10° NNW 20:31:12 73° WSW 20:31:24 72° WSW
NOSS 3-1 (C) 3.6 20:31:34 10° SW 20:37:17 65° NW 20:37:28 65° NW
Lacrosse 5 4.3 20:35:03 10° NNW 20:35:34 12° NNW 20:35:34 12° NNW
ALOS 3.9 20:34:44 10° SSW 20:38:54 33° W 20:43:07 10° NNW
USA 215 3.3 20:44:05 73° SSW 20:44:22 74° SW 20:50:56 10° NW
CZ-3A R/B 4.2 20:52:01 10° WNW 20:56:27 40° SW 21:05:47 10° SSE
ATLAS 5 CENTAUR R/B 4.4 21:09:36 10° NNW 21:11:05 19° NNW 21:11:05 19° NNW
